GW3643 Weather Reports


time (UTC)temp
C
wind
direction
speed
KPH
gust
KPH
rain 1hr
cm
rain 24hr
cm
rain mn
cm
humidity
%
barometer
mb
20260506234045 13 134 4.8 14.5 0.00 0.00 0.00 45 1009.9
20260506233545 13 97 4.8 14.5 0.00 0.00 0.00 45 1009.9
20260506233052 14 80 3.2 14.5 0.00 0.00 0.00 43 1009.9
20260506232544 14 62 4.8 14.5 0.00 0.00 0.00 42 1009.9
20260506232043 14 26 3.2 14.5 0.00 0.00 0.00 42 1009.8
20260506231608 14 35 3.2 14.5 0.00 0.00 0.00 41 1009.8
20260506231042 15 41 1.6 14.5 0.00 0.00 0.00 40 1009.8
20260506230543 15 31 3.2 14.5 0.00 0.00 0.00 39 1009.9
20260506230116 15 42 3.2 11.3 0.00 0.00 0.00 38 1009.8
20260506225545 15 71 1.6 6.4 0.00 0.00 0.00 37 1009.8
20260506225043 15 55 1.6 6.4 0.00 0.00 0.00 36 1009.8
20260506224603 15 112 0.0 6.4 0.00 0.00 0.00 36 1009.8
20260506224042 15 87 0.0 9.7 0.00 0.00 0.00 35 1009.8
20260506223545 15 0 1.6 9.7 0.00 0.00 0.00 34 1009.8
20260506223057 15 0 0.0 6.4 0.00 0.00 0.00 34 1009.8
20260506222543 16 161 3.2 6.4 0.00 0.00 0.00 33 1009.8
20260506222046 16 157 1.6 6.4 0.00 0.00 0.00 32 1009.7
20260506221610 16 116 0.0 6.4 0.00 0.00 0.00 32 1009.8
20260506221043 16 0 1.6 6.4 0.00 0.00 0.00 32 1009.8
20260506220546 16 78 1.6 4.8 0.00 0.00 0.00 32 1009.8
20260506220108 16 103 0.0 4.8 0.00 0.00 0.00 33 1009.8
20260506215544 16 85 0.0 4.8 0.00 0.00 0.00 33 1009.8
20260506215044 16 110 0.0 3.2 0.00 0.00 0.00 33 1009.8
20260506214553 16 95 0.0 4.8 0.00 0.00 0.00 33 1009.9
20260506214044 16 0 1.6 4.8 0.00 0.00 0.00 33 1009.8
20260506213543 16 0 0.0 3.2 0.00 0.00 0.00 33 1009.9
20260506213110 16 0 0.0 3.2 0.00 0.00 0.00 33 1009.9
20260506212545 16 0 0.0 3.2 0.00 0.00 0.00 33 1009.9
20260506212044 16 84 0.0 3.2 0.00 0.00 0.00 32 1009.9
20260506211550 16 84 0.0 4.8 0.00 0.00 0.00 32 1009.9
20260506211044 16 0 0.0 4.8 0.00 0.00 0.00 32 1009.9
20260506210544 16 84 0.0 4.8 0.00 0.00 0.00 32 1009.9
20260506210104 16 0 0.0 3.2 0.00 0.00 0.00 31 1009.9
20260506205542 16 118 0.0 3.2 0.00 0.00 0.00 31 1009.9
20260506205042 16 0 0.0 3.2 0.00 0.00 0.00 31 1009.9
20260506204601 16 0 0.0 3.2 0.00 0.00 0.00 30 1009.9
20260506204041 16 0 0.0 3.2 0.00 0.00 0.00 30 1009.9
20260506203545 16 61 0.0 3.2 0.00 0.00 0.00 30 1009.8
20260506203052 16 0 0.0 3.2 0.00 0.00 0.00 31 1009.8
20260506202544 17 0 0.0 3.2 0.00 0.00 0.00 30 1009.8
20260506202041 17 0 0.0 4.8 0.00 0.00 0.00 29 1009.7
20260506201555 17 0 0.0 4.8 0.00 0.00 0.00 29 1009.7
20260506201048 17 0 0.0 4.8 0.00 0.00 0.00 28 1009.7
20260506200546 17 0 0.0 3.2 0.00 0.00 0.00 28 1009.7
20260506200058 17 93 0.0 3.2 0.00 0.00 0.00 28 1009.7
20260506195548 17 0 0.0 3.2 0.00 0.00 0.00 27 1009.7
20260506195045 17 0 0.0 3.2 0.00 0.00 0.00 27 1009.5
20260506194553 17 0 0.0 3.2 0.00 0.00 0.00 27 1009.5
20260506194046 17 0 0.0 4.8 0.00 0.00 0.00 28 1009.5
20260506193542 17 39 0.0 4.8 0.00 0.00 0.00 27 1009.5
20260506193052 17 46 1.6 4.8 0.00 0.00 0.00 27 1009.4
20260506192545 17 46 0.0 3.2 0.00 0.00 0.00 28 1009.5
20260506192045 17 155 0.0 3.2 0.00 0.00 0.00 28 1009.5
20260506191552 17 0 0.0 3.2 0.00 0.00 0.00 28 1009.5
20260506191045 17 155 0.0 8.0 0.00 0.00 0.00 28 1009.4
20260506190547 17 0 3.2 8.0 0.00 0.00 0.00 26 1009.4
20260506190051 17 14 1.6 3.2 0.00 0.00 0.00 26 1009.4
20260506185544 17 0 0.0 4.8 0.00 0.00 0.00 26 1009.4
20260506185045 17 0 0.0 4.8 0.00 0.00 0.00 26 1009.3
20260506184613 17 148 1.6 6.4 0.00 0.00 0.00 26 1009.4
20260506184045 17 179 3.2 6.4 0.00 0.00 0.00 25 1009.3
20260506183549 17 206 1.6 6.4 0.00 0.00 0.00 25 1009.3
20260506183055 18 149 0.0 3.2 0.00 0.00 0.00 25 1009.3
20260506182545 18 137 0.0 6.4 0.00 0.00 0.00 26 1009.3
20260506182042 18 137 1.6 6.4 0.00 0.00 0.00 26 1009.4
20260506181552 18 184 1.6 4.8 0.00 0.00 0.00 25 1009.3
20260506181045 18 167 1.6 6.4 0.00 0.00 0.00 25 1009.3
20260506180545 18 100 0.0 6.4 0.00 0.00 0.00 25 1009.4
20260506180056 18 176 1.6 8.0 0.00 0.00 0.00 26 1009.3
20260506175544 18 142 1.6 8.0 0.00 0.00 0.00 26 1009.3
20260506175047 18 49 1.6 9.7 0.00 0.00 0.00 26 1009.4
20260506174552 18 159 1.6 9.7 0.00 0.00 0.00 26 1009.4
20260506174043 18 126 3.2 11.3 0.00 0.00 0.00 26 1009.4
20260506173544 18 1 3.2 11.3 0.00 0.00 0.00 26 1009.4
20260506173056 18 0 3.2 11.3 0.00 0.00 0.00 27 1009.5
20260506172543 18 120 3.2 11.3 0.00 0.00 0.00 27 1009.5
20260506172047 18 128 3.2 9.7 0.00 0.00 0.00 27 1009.4
20260506171607 18 169 3.2 11.3 0.00 0.00 0.00 27 1009.5
20260506171043 18 109 4.8 14.5 0.00 0.00 0.00 28 1009.5
20260506170544 18 218 6.4 14.5 0.00 0.00 0.00 28 1009.5
20260506170056 18 172 8.0 14.5 0.00 0.00 0.00 27 1009.4
20260506165543 18 172 4.8 11.3 0.00 0.00 0.00 26 1009.6
20260506165043 18 351 1.6 9.7 0.00 0.00 0.00 28 1009.5
20260506164552 18 199 1.6 16.1 0.00 0.00 0.00 28 1009.7
20260506164042 18 204 4.8 16.1 0.00 0.00 0.00 28 1009.7
20260506163542 18 174 3.2 11.3 0.00 0.00 0.00 28 1009.7
20260506163052 18 253 3.2 11.3 0.00 0.00 0.00 28 1009.7
20260506162544 18 217 4.8 11.3 0.00 0.00 0.00 27 1009.7
20260506162044 18 155 4.8 11.3 0.00 0.00 0.00 28 1009.8
20260506161549 18 0 3.2 8.0 0.00 0.00 0.00 27 1009.7
20260506161041 19 8 1.6 6.4 0.00 0.00 0.00 27 1009.7
20260506160543 20 243 0.0 6.4 0.00 0.00 0.00 26 1009.8
20260506155542 18 266 1.6 11.3 0.00 0.00 0.00 28 1009.8
20260506155043 18 265 1.6 11.3 0.00 0.00 0.00 28 1009.8
20260506154553 18 236 1.6 9.7 0.00 0.00 0.00 28 1009.9
20260506154046 18 156 1.6 9.7 0.00 0.00 0.00 30 1009.9
20260506153545 18 0 3.2 11.3 0.00 0.00 0.00 30 1009.9
20260506153055 17 71 3.2 11.3 0.00 0.00 0.00 30 1009.9
20260506152544 18 147 3.2 8.0 0.00 0.00 0.00 30 1010.0
20260506152045 18 194 3.2 14.5 0.00 0.00 0.00 31 1010.0
20260506151551 18 192 4.8 14.5 0.00 0.00 0.00 31 1010.0
20260506151042 18 0 3.2 14.5 0.00 0.00 0.00 31 1010.1
20260506150543 18 168 6.4 12.9 0.00 0.00 0.00 30 1010.2
20260506150053 18 204 0.0 3.2 0.00 0.00 0.00 28 1010.2
20260506145545 18 259 0.0 12.9 0.00 0.00 0.00 31 1010.3
20260506145045 17 273 3.2 12.9 0.00 0.00 0.00 31 1010.4
20260506144602 17 135 3.2 11.3 0.00 0.00 0.00 33 1010.4
20260506144045 17 180 4.8 11.3 0.00 0.00 0.00 32 1010.5
20260506143545 17 147 1.6 9.7 0.00 0.00 0.00 33 1010.6
20260506143051 17 230 1.6 9.7 0.00 0.00 0.00 33 1010.7
20260506142545 17 14 3.2 11.3 0.00 0.00 0.00 33 1010.7
20260506142042 17 12 6.4 11.3 0.00 0.00 0.00 32 1010.8
20260506141549 18 5 3.2 8.0 0.00 0.00 0.00 32 1010.8
20260506141045 18 224 1.6 8.0 0.00 0.00 0.00 32 1010.9
20260506140545 19 132 1.6 11.3 0.00 0.00 0.00 31 1010.9
20260506140053 18 307 3.2 11.3 0.00 0.00 0.00 34 1010.9
20260506135542 18 213 1.6 6.4 0.00 0.00 0.00 32 1011.0
20260506135043 18 240 1.6 6.4 0.00 0.00 0.00 33 1011.0
20260506134552 18 259 0.0 9.7 0.00 0.00 0.00 33 1011.0
20260506134043 17 262 1.6 9.7 0.00 0.00 0.00 35 1011.1
20260506133542 17 213 4.8 9.7 0.00 0.00 0.00 36 1011.2
20260506133052 16 225 3.2 8.0 0.00 0.00 0.00 36 1011.2
20260506132545 16 183 1.6 6.4 0.00 0.00 0.00 36 1011.3
20260506132044 16 351 0.0 6.4 0.00 0.00 0.00 37 1011.3
20260506131612 16 101 1.6 8.0 0.00 0.00 0.00 37 1011.3
20260506131045 16 0 1.6 8.0 0.00 0.00 0.00 37 1011.3
20260506130544 17 331 1.6 8.0 0.00 0.00 0.00 36 1011.3
20260506130055 16 0 0.0 6.4 0.00 0.00 0.00 39 1011.4
20260506125545 15 357 1.6 8.0 0.00 0.00 0.00 40 1011.5
20260506125044 15 323 3.2 8.0 0.00 0.00 0.00 40 1011.5
20260506124550 15 319 3.2 6.4 0.00 0.00 0.00 40 1011.6
20260506124044 16 330 3.2 6.4 0.00 0.00 0.00 40 1011.7
20260506123542 16 324 0.0 6.4 0.00 0.00 0.00 40 1011.6
20260506123055 15 338 1.6 8.0 0.00 0.00 0.00 41 1011.7
20260506122542 15 336 3.2 12.9 0.00 0.00 0.00 41 1011.8
20260506122042 15 37 1.6 12.9 0.00 0.00 0.00 42 1011.8
20260506121557 15 341 4.8 12.9 0.00 0.00 0.00 41 1011.8
20260506121047 15 351 3.2 14.5 0.00 0.00 0.00 40 1011.8
20260506120542 16 94 8.0 14.5 0.00 0.00 0.00 39 1011.8
20260506120054 16 30 1.6 8.0 0.00 0.00 0.00 40 1011.9
20260506115547 15 74 1.6 6.4 0.00 0.00 0.00 41 1011.9
20260506115043 15 39 1.6 8.0 0.00 0.00 0.00 42 1012.0
20260506114553 15 2 0.0 8.0 0.00 0.00 0.00 41 1012.1
20260506114045 15 41 3.2 12.9 0.00 0.00 0.00 42 1012.1
20260506113543 15 331 3.2 12.9 0.00 0.00 0.00 41 1012.0
20260506113049 16 330 0.0 4.8 0.00 0.00 0.00 43 1012.1
20260506112545 15 0 1.6 4.8 0.00 0.00 0.00 42 1012.2
20260506112044 15 0 1.6 9.7 0.00 0.00 0.00 43 1012.3
20260506111552 15 288 0.0 11.3 0.00 0.00 0.00 43 1012.3
20260506111043 15 299 4.8 11.3 0.00 0.00 0.00 43 1012.3
20260506110543 15 322 1.6 14.5 0.00 0.00 0.00 42 1012.3
20260506110046 15 360 3.2 14.5 0.00 0.00 0.00 43 1012.3
20260506105544 15 24 0.0 12.9 0.00 0.00 0.00 44 1012.4
20260506105044 14 301 4.8 12.9 0.00 0.00 0.00 45 1012.4
20260506104554 13 55 3.2 9.7 0.00 0.00 0.00 45 1012.4
20260506104043 14 37 0.0 6.4 0.00 0.00 0.00 46 1012.5
20260506103544 14 235 1.6 9.7 0.00 0.00 0.00 45 1012.5
20260506103052 14 236 3.2 11.3 0.00 0.00 0.00 46 1012.7
20260506102544 14 0 3.2 11.3 0.00 0.00 0.00 46 1012.7
20260506102043 14 0 1.6 8.0 0.00 0.00 0.00 45 1012.8
20260506101549 14 133 1.6 8.0 0.00 0.00 0.00 46 1012.8
20260506101043 14 97 1.6 9.7 0.00 0.00 0.00 45 1012.9
20260506100544 15 136 4.8 12.9 0.00 0.00 0.00 46 1013.0
20260506100103 14 113 3.2 16.1 0.00 0.00 0.00 47 1013.0
20260506095544 13 22 6.4 17.7 0.00 0.00 0.00 49 1013.0
20260506095044 13 359 9.7 17.7 0.00 0.00 0.00 48 1012.8
20260506094549 13 12 1.6 12.9 0.00 0.00 0.00 48 1012.7
20260506094042 13 182 3.2 16.1 0.00 0.00 0.00 49 1012.6
20260506093543 13 197 1.6 16.1 0.00 0.00 0.00 50 1012.5
20260506093048 13 193 4.8 16.1 0.00 0.00 0.00 51 1012.6
20260506092543 12 0 3.2 16.1 0.00 0.00 0.00 52 1012.5
20260506092047 12 80 4.8 12.9 0.00 0.00 0.00 51 1012.7
20260506091555 13 149 3.2 12.9 0.00 0.00 0.00 49 1012.7
20260506091043 14 358 1.6 9.7 0.00 0.00 0.00 48 1012.8
20260506090544 13 9 1.6 11.3 0.00 0.00 0.00 48 1012.7
20260506090048 12 36 3.2 11.3 0.00 0.00 0.00 52 1012.7
20260506085543 13 358 3.2 14.5 0.00 0.00 0.00 50 1012.7
20260506085044 12 213 1.6 14.5 0.00 0.00 0.00 53 1012.7
20260506084548 12 161 4.8 12.9 0.00 0.00 0.00 52 1012.6
20260506084045 12 72 4.8 11.3 0.00 0.00 0.00 53 1012.6
20260506083545 13 164 0.0 14.5 0.00 0.00 0.00 51 1012.6
20260506083050 12 22 3.2 14.5 0.00 0.00 0.00 53 1012.6
20260506082545 12 23 3.2 16.1 0.00 0.00 0.00 54 1012.7
20260506082044 12 35 6.4 16.1 0.00 0.00 0.00 54 1012.6
20260506081551 12 37 8.0 16.1 0.00 0.00 0.00 54 1012.6
20260506081045 12 9 1.6 8.0 0.00 0.00 0.00 52 1012.7
20260506080544 12 22 3.2 9.7 0.00 0.00 0.00 53 1012.7
20260506073055 11 355 4.8 9.7 0.00 0.00 0.00 57 1012.8
20260506072543 11 341 3.2 8.0 0.00 0.00 0.00 58 1012.8
20260506072045 11 100 0.0 8.0 0.00 0.00 0.00 58 1012.8
20260506071600 10 346 3.2 8.0 0.00 0.00 0.00 60 1012.7
20260506071043 10 35 1.6 8.0 0.00 0.00 0.00 61 1012.8
20260506070548 10 128 1.6 8.0 0.00 0.00 0.00 61 1012.6
20260506062044 10 19 1.6 6.4 0.00 0.00 0.00 63 1012.4
20260506061555 9 16 1.6 6.4 0.00 0.00 0.00 64 1012.3
20260506061044 9 351 1.6 6.4 0.00 0.00 0.00 65 1012.3
20260506060543 9 0 0.0 6.4 0.00 0.00 0.00 66 1012.3
20260506051044 8 14 1.6 4.8 0.00 0.00 0.00 65 1012.0
20260506050545 8 18 0.0 6.4 0.00 0.00 0.00 65 1011.9
20260506045043 9 0 0.0 4.8 0.00 0.00 0.00 66 1011.7
20260506044550 8 0 0.0 4.8 0.00 0.00 0.00 66 1011.6
20260506044042 8 35 1.6 4.8 0.00 0.00 0.00 66 1011.6
20260506043542 8 66 0.0 6.4 0.00 0.00 0.00 66 1011.7
20260506043050 9 41 1.6 6.4 0.00 0.00 0.00 65 1011.7
20260506042544 9 28 1.6 6.4 0.00 0.00 0.00 65 1011.8
20260506042047 9 60 0.0 6.4 0.00 0.00 0.00 65 1011.6
20260506041555 9 51 0.0 6.4 0.00 0.00 0.00 65 1011.7
20260506041041 9 71 0.0 6.4 0.00 0.00 0.00 65 1011.7
20260506040545 9 48 0.0 6.4 0.00 0.00 0.00 65 1011.6
20260506040055 9 22 1.6 3.2 0.00 0.00 0.00 64 1011.8
20260506035542 9 135 0.0 6.4 0.00 0.00 0.00 64 1011.8
20260506035045 9 0 0.0 6.4 0.00 0.00 0.00 64 1011.8
20260506034550 9 122 1.6 6.4 0.00 0.00 0.00 64 1011.8
20260506034043 9 83 1.6 6.4 0.00 0.00 0.00 64 1011.8
20260506033544 9 127 1.6 8.0 0.00 0.00 0.00 64 1011.8
20260506033049 9 80 1.6 8.0 0.00 0.00 0.00 64 1011.8
20260506032544 9 122 3.2 8.0 0.00 0.00 0.00 64 1012.0
20260506032043 10 57 3.2 8.0 0.00 0.00 0.00 63 1011.9
20260506031551 10 159 3.2 9.7 0.00 0.00 0.00 62 1011.8
20260506031046 10 109 3.2 9.7 0.00 0.00 0.00 62 1011.8
20260506030545 10 22 0.0 11.3 0.00 0.00 0.00 62 1011.8
20260506030100 10 0 3.2 11.3 0.00 0.00 0.00 62 1011.8
20260506025544 10 145 3.2 11.3 0.00 0.00 0.00 61 1011.8
20260506025044 10 129 3.2 8.0 0.00 0.00 0.00 61 1011.9
20260506024557 10 149 0.0 6.4 0.00 0.00 0.00 61 1011.8
20260506024044 10 131 1.6 9.7 0.00 0.00 0.00 60 1011.9
20260506023545 10 0 1.6 9.7 0.00 0.00 0.00 60 1011.9
20260506023050 10 109 0.0 8.0 0.00 0.00 0.00 60 1012.0
20260506022543 10 61 1.6 8.0 0.00 0.00 0.00 60 1012.0
20260506022044 10 82 0.0 12.9 0.00 0.00 0.00 60 1012.0
20260506021548 10 81 1.6 12.9 0.00 0.00 0.00 59 1012.0
20260506021044 10 155 3.2 12.9 0.00 0.00 0.00 59 1012.0
20260506020544 10 134 3.2 9.7 0.00 0.00 0.00 59 1011.9
20260506020048 10 112 4.8 9.7 0.00 0.00 0.00 59 1011.9
20260506015545 10 137 3.2 8.0 0.00 0.00 0.00 58 1011.9
20260506015046 10 129 3.2 11.3 0.00 0.00 0.00 58 1011.9
20260506014600 10 0 1.6 11.3 0.00 0.00 0.00 58 1011.9
20260506014044 10 92 1.6 9.7 0.00 0.00 0.00 58 1011.9
20260506013616 10 0 1.6 9.7 0.00 0.00 0.00 58 1012.0
20260506013056 10 125 3.2 8.0 0.00 0.00 0.00 58 1012.0
20260506012544 10 166 3.2 8.0 0.00 0.00 0.00 58 1012.1
20260506012046 11 105 3.2 8.0 0.00 0.00 0.00 58 1012.1
20260506011558 11 132 3.2 8.0 0.00 0.00 0.00 58 1012.3
20260506011049 11 0 0.0 8.0 0.00 0.00 0.00 58 1012.3
20260506010548 11 191 0.0 8.0 0.00 0.00 0.00 57 1012.3
20260506010105 11 182 1.6 8.0 0.00 0.00 0.00 57 1012.2
20260506005546 11 180 4.8 8.0 0.00 0.00 0.00 57 1012.3
20260506005046 11 186 1.6 8.0 0.00 0.00 0.00 57 1012.3
20260506004553 11 183 0.0 9.7 0.00 0.00 0.00 57 1012.4
20260506004044 11 130 4.8 9.7 0.00 0.00 0.00 57 1012.4
20260506003547 11 134 1.6 8.0 0.00 0.00 0.00 57 1012.4
20260506003049 11 158 1.6 8.0 0.00 0.00 0.00 57 1012.5
20260506002546 11 166 1.6 8.0 0.00 0.00 0.00 57 1012.4
20260506002044 11 119 1.6 6.4 0.00 0.00 0.00 58 1012.4
20260506001553 11 0 3.2 6.4 0.00 0.00 0.00 58 1012.5
20260506001048 11 87 1.6 9.7 0.00 0.00 0.00 58 1012.5
20260506000547 11 164 0.0 9.7 0.00 0.00 0.00 58 1012.5
20260506000051 11 124 3.2 9.7 0.00 0.00 0.00 58 1012.5
20260505235549 11 128 1.6 9.7 0.00 0.00 0.00 58 1012.5
20260505235047 11 87 1.6 9.7 0.00 0.00 0.00 57 1012.5
20260505234549 11 98 1.6 11.3 0.00 0.00 0.00 57 1012.5